TJS-14

Last updated on Mon Oct 20 2025 00:02:51 GMT+0000 (Coordinated Universal Time)

1 62804U 25017A 25292.27095723 .00000111 00000+0 00000+0 0 9991 2 62804 1.3640 286.6036 0003737 343.7655 233.6209 1.00275900 2854
UTC large
Height (km)
Speed (km/s)
/
Latitude / Longitude
Inclination (degrees)
Orbital Period (minutes)
Azimuth
Elevation
Range (km)
Doppler Factor

Next 0 passes for location: London (51.5072 / 0.1276)

Sorry there are no passes over London.